Location: Caltech
(34.1382°N, 118.1253°W)
Time: 12:12:29
(UTC-07:00)

OPAL - Visible Passes

Search period start: 27 July 2016 00:00
Search period end: 06 August 2016 00:00
Orbit: 743 x 796 km, 100.2° (Epoch: 26 July)

Date Brightness Start Highest point End Pass type
(mag) Time Alt. Az. Time Alt. Az. Time Alt. Az.
27 Jul 10.1 01:30:46 10° ENE 01:31:30 12° ENE 01:31:30 12° ENE visible
27 Jul 8.2 03:07:57 10° N 03:11:47 43° NW 03:11:47 43° NW visible
28 Jul 8.5 02:32:24 10° NNE 02:35:48 43° NE 02:35:48 43° NE visible
28 Jul 9.6 04:13:58 10° NW 04:15:35 12° WNW 04:16:05 11° WNW visible
29 Jul 9.5 01:57:32 10° NE 01:59:49 22° ENE 01:59:49 22° ENE visible
29 Jul 8.8 03:36:28 10° NNW 03:40:06 26° WNW 03:40:06 26° WNW visible
30 Jul 8.2 03:00:26 10° N 03:04:06 46° NNW 03:04:06 46° NNW visible
31 Jul 8.8 02:25:03 10° NNE 02:28:07 35° NE 02:28:07 35° NE visible
31 Jul 9.4 04:05:38 10° NNW 04:08:17 15° WNW 04:08:24 15° WNW visible
01 Aug 9.8 01:50:27 10° NE 01:52:08 17° ENE 01:52:08 17° ENE visible
01 Aug 8.6 03:28:49 10° N 03:32:25 31° NW 03:32:25 31° NW visible
02 Aug 8.3 02:52:58 10° NNE 02:56:25 46° N 02:56:25 46° N visible
03 Aug 9.2 02:17:45 10° NNE 02:20:26 29° NE 02:20:26 29° NE visible
03 Aug 9.2 03:57:40 10° NNW 04:00:43 18° WNW 04:00:43 18° WNW visible
04 Aug 10.0 01:43:29 10° NE 01:44:26 13° ENE 01:44:26 13° ENE visible
04 Aug 8.5 03:21:12 10° N 03:24:43 36° NW 03:24:43 36° NW visible
05 Aug 8.6 02:45:32 10° NNE 02:48:44 41° NNE 02:48:44 41° NNE visible
